• In Hungary
  • List of Countries
  • For 7 days
  • Water Temperature
  • Satellite Maps
  • Weather Map
  • News
  • Weather Widgets
  • user-avatar
    Login

    Hourly Weather Pulau Bintan

    Today, 26 February, Monday

    Time Temperature Precipitation Wind Pressure Humidity
    00:00 +28°C° 0.2 mm 5 mps 755 mmHg 83%
    01:00 +28°C° 0 mm 5 mps 754 mmHg 83%
    02:00 +28°C° 0.6 mm 5 mps 754 mmHg 83%
    03:00 +28°C° 0.6 mm 5 mps 754 mmHg 84%
    04:00 +28°C° 0.6 mm 5 mps 754 mmHg 84%
    05:00 +28°C° 1 mm 5 mps 754 mmHg 84%
    06:00 +28°C° 1 mm 5 mps 754 mmHg 84%
    07:00 +28°C° 1 mm 5 mps 754 mmHg 84%
    08:00 +28°C° 0.1 mm 6 mps 755 mmHg 81%
    09:00 +29°C° 0.1 mm 6 mps 755 mmHg 77%
    10:00 +30°C° 0.1 mm 6 mps 755 mmHg 74%
    11:00 +30°C° 0.2 mm 6 mps 755 mmHg 71%
    12:00 +32°C° 0.2 mm 6 mps 754 mmHg 69%
    13:00 +32°C° 0.2 mm 6 mps 754 mmHg 67%
    14:00 +32°C° 0 mm 6 mps 754 mmHg 67%
    15:00 +32°C° 0 mm 6 mps 753 mmHg 68%
    16:00 +30°C° 0 mm 6 mps 753 mmHg 68%
    17:00 +30°C° 0 mm 5 mps 753 mmHg 71%
    18:00 +29°C° 0 mm 5 mps 753 mmHg 74%
    19:00 +28°C° 0 mm 5 mps 753 mmHg 77%
    20:00 +28°C° 0 mm 5 mps 754 mmHg 78%
    21:00 +28°C° 0 mm 4 mps 754 mmHg 79%
    22:00 +28°C° 0 mm 4 mps 755 mmHg 80%
    23:00 +28°C° 0 mm 4 mps 755 mmHg 80%

    Tomorrow, 27 February, Tuesday

    Time Temperature Precipitation Wind Pressure Humidity
    00:00 +28°C° 0 mm 4 mps 755 mmHg 81%
    01:00 +28°C° 0 mm 4 mps 754 mmHg 82%
    02:00 +28°C° 0.1 mm 4 mps 754 mmHg 83%
    03:00 +28°C° 0.1 mm 4 mps 754 mmHg 83%
    04:00 +28°C° 0.1 mm 4 mps 753 mmHg 84%
    05:00 +28°C° 0.1 mm 4 mps 754 mmHg 84%
    06:00 +28°C° 0.1 mm 4 mps 754 mmHg 83%
    07:00 +28°C° 0.1 mm 4 mps 754 mmHg 83%
    08:00 +29°C° 0 mm 4 mps 754 mmHg 79%
    09:00 +30°C° 0 mm 4 mps 755 mmHg 75%
    10:00 +32°C° 0 mm 4 mps 755 mmHg 70%
    11:00 +32°C° 0.1 mm 5 mps 755 mmHg 68%
    12:00 +33°C° 0.1 mm 5 mps 754 mmHg 66%
    13:00 +33°C° 0.1 mm 5 mps 754 mmHg 63%
    14:00 +33°C° 0 mm 5 mps 753 mmHg 65%
    15:00 +33°C° 0 mm 5 mps 752 mmHg 66%
    16:00 +32°C° 0 mm 5 mps 752 mmHg 67%
    17:00 +30°C° 0 mm 5 mps 752 mmHg 71%
    18:00 +30°C° 0 mm 5 mps 753 mmHg 75%
    19:00 +29°C° 0 mm 4 mps 753 mmHg 80%
    20:00 +29°C° 0 mm 4 mps 753 mmHg 81%
    21:00 +29°C° 0 mm 4 mps 754 mmHg 81%
    22:00 +28°C° 0 mm 4 mps 755 mmHg 82%
    23:00 +28°C° 0 mm 4 mps 754 mmHg 83%

    Day after tomorrow, 28 February, Wednesday

    Time Temperature Precipitation Wind Pressure Humidity
    00:00 +28°C° 0 mm 4 mps 754 mmHg 84%
    01:00 +28°C° 0 mm 4 mps 754 mmHg 84%
    02:00 +28°C° 0.2 mm 4 mps 753 mmHg 85%
    03:00 +28°C° 0.2 mm 4 mps 753 mmHg 85%
    04:00 +28°C° 0.2 mm 4 mps 753 mmHg 86%
    05:00 +28°C° 0 mm 4 mps 753 mmHg 85%
    06:00 +28°C° 0 mm 4 mps 753 mmHg 85%
    07:00 +28°C° 0 mm 4 mps 754 mmHg 84%
    08:00 +29°C° 0 mm 4 mps 754 mmHg 79%
    09:00 +30°C° 0 mm 4 mps 755 mmHg 74%
    10:00 +32°C° 0 mm 4 mps 755 mmHg 69%
    11:00 +33°C° 0 mm 4 mps 755 mmHg 66%
    12:00 +34°C° 0 mm 4 mps 754 mmHg 63%
    13:00 +34°C° 0 mm 4 mps 754 mmHg 60%
    14:00 +34°C° 0.5 mm 4 mps 753 mmHg 63%
    15:00 +33°C° 0.5 mm 4 mps 752 mmHg 65%
    16:00 +33°C° 0.5 mm 4 mps 752 mmHg 68%
    17:00 +32°C° 0.2 mm 4 mps 752 mmHg 72%
    18:00 +30°C° 0.2 mm 4 mps 753 mmHg 77%
    19:00 +29°C° 0.2 mm 3 mps 753 mmHg 81%
    20:00 +29°C° 0.1 mm 3 mps 754 mmHg 83%
    21:00 +29°C° 0.1 mm 3 mps 754 mmHg 84%
    22:00 +28°C° 0.1 mm 3 mps 754 mmHg 85%
    23:00 +28°C° 0 mm 3 mps 754 mmHg 86%

    1 March, Thursday

    Time Temperature Precipitation Wind Pressure Humidity
    00:00 +28°C° 0 mm 3 mps 754 mmHg 86%
    01:00 +28°C° 0 mm 3 mps 753 mmHg 87%
    02:00 +28°C° 0.1 mm 3 mps 753 mmHg 86%
    03:00 +28°C° 0.1 mm 3 mps 753 mmHg 86%
    04:00 +28°C° 0.1 mm 3 mps 752 mmHg 86%
    05:00 +28°C° 0 mm 3 mps 753 mmHg 85%
    06:00 +28°C° 0 mm 3 mps 753 mmHg 85%
    07:00 +28°C° 0 mm 2 mps 754 mmHg 84%
    08:00 +29°C° 0 mm 2 mps 754 mmHg 79%
    09:00 +30°C° 0 mm 2 mps 755 mmHg 74%
    10:00 +31°C° 0 mm 2 mps 755 mmHg 69%
    11:00 +33°C° 0 mm 3 mps 755 mmHg 66%
    12:00 +34°C° 0 mm 3 mps 754 mmHg 63%
    13:00 +34°C° 0 mm 3 mps 753 mmHg 61%
    14:00 +34°C° 0.4 mm 3 mps 753 mmHg 63%
    15:00 +33°C° 0.4 mm 3 mps 752 mmHg 66%
    16:00 +33°C° 0.4 mm 3 mps 752 mmHg 68%
    17:00 +31°C° 0 mm 3 mps 752 mmHg 72%
    18:00 +30°C° 0 mm 3 mps 753 mmHg 76%
    19:00 +29°C° 0 mm 2 mps 753 mmHg 80%
    20:00 +29°C° 0 mm 2 mps 754 mmHg 81%
    21:00 +29°C° 0 mm 3 mps 754 mmHg 82%
    22:00 +29°C° 0 mm 3 mps 755 mmHg 83%
    23:00 +29°C° 0 mm 2 mps 754 mmHg 84%

    2 March, Friday

    Time Temperature Precipitation Wind Pressure Humidity
    00:00 +28°C° 0 mm 2 mps 754 mmHg 84%
    01:00 +28°C° 0 mm 2 mps 753 mmHg 85%
    02:00 +28°C° 0 mm 2 mps 753 mmHg 85%
    03:00 +28°C° 0 mm 2 mps 753 mmHg 85%
    04:00 +28°C° 0 mm 1 mps 752 mmHg 86%
    05:00 +28°C° 0.1 mm 1 mps 753 mmHg 85%
    06:00 +28°C° 0.1 mm 2 mps 753 mmHg 85%
    07:00 +28°C° 0.1 mm 2 mps 754 mmHg 84%
    08:00 +29°C° 0.3 mm 2 mps 754 mmHg 79%
    09:00 +30°C° 0.3 mm 2 mps 755 mmHg 74%
    10:00 +31°C° 0.3 mm 2 mps 755 mmHg 69%
    11:00 +32°C° 0.4 mm 2 mps 754 mmHg 67%
    12:00 +34°C° 0.4 mm 2 mps 754 mmHg 64%
    13:00 +35°C° 0.4 mm 2 mps 753 mmHg 61%
    14:00 +34°C° 0.5 mm 3 mps 753 mmHg 64%
    15:00 +33°C° 0.5 mm 3 mps 752 mmHg 66%
    16:00 +32°C° 0.5 mm 4 mps 752 mmHg 69%
    17:00 +32°C° 0.3 mm 4 mps 752 mmHg 73%
    18:00 +30°C° 0.3 mm 3 mps 753 mmHg 77%
    19:00 +29°C° 0.3 mm 3 mps 753 mmHg 81%
    20:00 +29°C° 0 mm 3 mps 754 mmHg 81%
    21:00 +28°C° 0 mm 3 mps 754 mmHg 82%
    22:00 +28°C° 0 mm 2 mps 754 mmHg 83%
    23:00 +28°C° 0 mm 2 mps 754 mmHg 84%

    3 March, Saturday

    Time Temperature Precipitation Wind Pressure Humidity
    00:00 +28°C° 0 mm 2 mps 753 mmHg 85%
    01:00 +28°C° 0 mm 2 mps 753 mmHg 85%
    02:00 +28°C° 0 mm 2 mps 753 mmHg 86%
    03:00 +28°C° 0 mm 2 mps 753 mmHg 86%
    04:00 +28°C° 0 mm 2 mps 753 mmHg 87%
    05:00 +28°C° 0 mm 2 mps 753 mmHg 86%
    06:00 +28°C° 0 mm 2 mps 753 mmHg 85%
    07:00 +28°C° 0 mm 2 mps 754 mmHg 85%
    08:00 +29°C° 0.1 mm 2 mps 754 mmHg 78%
    09:00 +31°C° 0.1 mm 2 mps 754 mmHg 72%
    10:00 +33°C° 0.1 mm 3 mps 754 mmHg 65%
    11:00 +34°C° 0 mm 3 mps 754 mmHg 63%
    12:00 +34°C° 0 mm 3 mps 753 mmHg 60%
    13:00 +35°C° 0 mm 3 mps 753 mmHg 57%
    14:00 +34°C° 0 mm 3 mps 752 mmHg 59%
    15:00 +34°C° 0 mm 4 mps 752 mmHg 61%
    16:00 +33°C° 0 mm 4 mps 751 mmHg 63%
    17:00 +31°C° 0 mm 3 mps 752 mmHg 67%
    18:00 +30°C° 0 mm 3 mps 752 mmHg 72%
    19:00 +29°C° 0 mm 3 mps 752 mmHg 76%
    20:00 +29°C° 0 mm 3 mps 753 mmHg 78%
    21:00 +29°C° 0 mm 3 mps 753 mmHg 80%
    22:00 +29°C° 0 mm 3 mps 754 mmHg 81%
    23:00 +29°C° 0 mm 3 mps 753 mmHg 82%
    Show more